"Pseudo-MPEC" for C0FYUN5

Created 2023 Feb 11 3:22:03 UT using Find_Orb

Click here for an explanation of pseudo-MPECs

 
 Astrometry: 
     C0FYUN5* C2023 01 28v+[a'.m)E/Z6_NRPlEm!qjAstrometry03eF``Blv]s^**97tS?LV00
     C0FYUN5  C2023 01 28opk;o^f)LyckEIredacted;,B;(Y5fdkJW\E0qrAAU8a^d:G09p[V00
     C0FYUN5  C2023 01 28fDoUdYF56]ZG_Q'1HR#:m;Y-biF2_\x)Q-mdT\TkUPH\ap9mM-`hV00
     C0FYUN5  C2023 01 28@m*c9HuoQyj05E!R+T7F$*9Q7Ss2#unsDiBOJyN:c9?pnJ$_q(idV00
     C0FYUN5 KC2023 01 28.30727406 39 10.480+30 55 47.40   ~1S87 21.43GVNEOCPI52
     C0FYUN5 KC2023 01 28.30903606 39 10.350+30 56 02.10   ~1S87       VNEOCPI52
     C0FYUN5 KC2023 01 28.31079906 39 10.400+30 56 16.60   ~1S87       VNEOCPI52
     C0FYUN5 KC2023 01 28.31256106 39 10.300+30 56 30.80   ~1S87       VNEOCPI52
     C0FYUN5  C2023 01 29.11794 06 39 49.95 +32 47 21.3    ~21Nb 21.5 GVNEOCPI52
     C0FYUN5  C2023 01 29.12102 06 39 49.83 +32 47 46.8    ~21Nb 21.7 GVNEOCPI52
     C0FYUN5  C2023 01 29.12411 06 39 49.79 +32 48 13.0    ~21Nb 21.4 GVNEOCPI52
     C0FYUN5 mC2023 02 113Z,lrchf620YaZ2jNubh:X6click?6ujT+xLkkE.31DyAW`Ui**?V00
     C0FYUN5 mC2023 02 11lL3$bRheren7BfUwq-#bRHpe4od/%epcoi0Ah]U]twI)NA6,]C..V00
     C0FYUN5 mC2023 02 11.BWs,]forRqS;@vKay:x.wLexplanation_FUhAEt%h(gQ%DJ1'(V00

Station data:
(I52) Steward Observatory, Mt. Lemmon Station  (N32.442544 W110.788920)
   US/Arizona.  Observers T. A. Pruyne, B. M. Africano, E. J. Christensen, G.
   A. Farneth, D. C. Fuls, A. R. Gibbs, A. D. Grauer, H. Gröller, J. A.
   Johnson, R. A. Kowalski, S. M. Larson, G. J. Leonard, D. Rankin, R. L.
   Seaman, F. C. Shelly, K. W. Wierzchoś. 1.0-m reflector + CCD.
(V00) Kitt Peak-Bok  (N31.963125 W111.600190)  US/Arizona.  Observers T. A.
   Pruyne, B. M. Africano, E. J. Christensen, G. A. Farneth, D. C. Fuls, A.
   R. Gibbs, A. D. Grauer, H. Gröller, J. A. Johnson, R. A. Kowalski, S. M.
   Larson, G. J. Leonard, D. Rankin, R. L. Seaman, F. C. Shelly, K. W.
   Wierzchoś. 2.25-m reflector + CCD.

Orbital elements:  C0FYUN5
   Perihelion 2022 Dec 17.70301 +/- 0.0335 TT = 16:52:20 (JD 2459931.20301)
Epoch 2023 Feb 11.0 TT = JDT 2459986.5   Earth MOID: 0.0433      AutoNEOCP
M  49.98726866 +/- 0.044            (J2000 ecliptic)
n   0.90397812 +/- 0.000362         Peri.  322.71483 +/- 0.036
a   1.05932877 +/- 0.000283         Node   123.44890 +/- 0.0039
e   0.0365628 +/- 0.000131          Incl.    7.39332 +/- 0.026
P   1.09/398.23d           H 26.79  G  0.15   U  7.4
q 1.02059673 +/- 0.000134    Q 1.09806080 +/- 0.000432
From 14 observations 2023 Jan. 28-Feb. 11; mean residual 0".29
Residuals in arcseconds: 
230128 V00  .15+  .07+    230128 I52  .85-  .12-    230129 I52  .29-  .04+    
230128 V00  .27+  .03+    230128 I52  .52+  .08-    230211 V00  .33-  .20+    
230128 V00  .10+  .05+    230128 I52  .04-  .32-    230211 V00  .10+  .21-    
230128 V00  .18+  .42+    230129 I52  .22+  .27+    230211 V00  .27+  .00     
230128 I52  .08+  .35-    230129 I52  .56-  .17-    

Ephemerides (geocentric):
Date (UTC) HH   RA             Dec           delta  r     elong  mag " sig PA
---- --------  ------------   ------------  ------ ------ -----  --- --------
2023 02 11 03  06 57 00.282   +53 19 34.68  .07324 1.0353 129.9 23.0 .244  67
2023 02 11 04  06 57 05.456   +53 22 05.20  .07332 1.0354 129.9 23.0 .242  66
2023 02 11 05  06 57 10.643   +53 24 35.28  .07340 1.0354 129.8 23.0 .241  66
2023 02 11 06  06 57 15.840   +53 27 04.92  .07348 1.0354 129.8 23.0 .239  66
2023 02 11 07  06 57 21.050   +53 29 34.13  .07357 1.0354 129.7 23.0 .238  65
2023 02 11 08  06 57 26.271   +53 32 02.90  .07365 1.0355 129.7 23.0 .236  65
2023 02 11 09  06 57 31.504   +53 34 31.24  .07373 1.0355 129.6 23.0 .235  64
2023 02 11 10  06 57 36.748   +53 36 59.14  .07381 1.0355 129.6 23.0 .233  64
2023 02 11 11  06 57 42.004   +53 39 26.61  .07389 1.0355 129.5 23.0 .232  64
2023 02 11 12  06 57 47.271   +53 41 53.66  .07397 1.0355 129.5 23.1 .231  63
2023 02 11 13  06 57 52.550   +53 44 20.27  .07406 1.0356 129.4 23.1 .229  63
2023 02 11 14  06 57 57.841   +53 46 46.45  .07414 1.0356 129.4 23.1 .228  62
2023 02 11 15  06 58 03.143   +53 49 12.21  .07422 1.0356 129.4 23.1 .227  62
2023 02 11 16  06 58 08.457   +53 51 37.54  .07430 1.0356 129.3 23.1 .225  61
2023 02 11 17  06 58 13.782   +53 54 02.44  .07439 1.0356 129.3 23.1 .224  61
2023 02 11 18  06 58 19.119   +53 56 26.92  .07447 1.0357 129.2 23.1 .223  61
2023 02 11 19  06 58 24.467   +53 58 50.97  .07455 1.0357 129.2 23.1 .222  60
2023 02 11 20  06 58 29.827   +54 01 14.60  .07463 1.0357 129.1 23.1 .220  60
2023 02 11 21  06 58 35.199   +54 03 37.81  .07471 1.0357 129.1 23.1 .219  59
2023 02 11 22  06 58 40.582   +54 06 00.60  .07480 1.0357 129.0 23.1 .218  59
2023 02 11 23  06 58 45.976   +54 08 22.97  .07488 1.0358 129.0 23.1 .217  58
2023 02 12 00  06 58 51.382   +54 10 44.92  .07496 1.0358 129.0 23.1 .216  58
2023 02 12 01  06 58 56.800   +54 13 06.45  .07505 1.0358 128.9 23.1 .214  57
2023 02 12 02  06 59 02.229   +54 15 27.57  .07513 1.0358 128.9 23.1 .213  57
2023 02 12 03  06 59 07.670   +54 17 48.26  .07521 1.0358 128.8 23.1 .212  56
2023 02 12 04  06 59 13.122   +54 20 08.55  .07529 1.0359 128.8 23.1 .211  56
2023 02 12 05  06 59 18.585   +54 22 28.42  .07538 1.0359 128.7 23.1 .210  55
2023 02 12 06  06 59 24.061   +54 24 47.87  .07546 1.0359 128.7 23.1 .209  55
2023 02 12 07  06 59 29.547   +54 27 06.92  .07554 1.0359 128.6 23.1 .208  54
2023 02 12 08  06 59 35.045   +54 29 25.55  .07562 1.0359 128.6 23.1 .207  53
2023 02 12 09  06 59 40.555   +54 31 43.78  .07571 1.0360 128.6 23.1 .206  53
2023 02 12 10  06 59 46.076   +54 34 01.59  .07579 1.0360 128.5 23.1 .205  52
2023 02 12 11  06 59 51.609   +54 36 18.99  .07587 1.0360 128.5 23.1 .204  52
2023 02 12 12  06 59 57.153   +54 38 35.99  .07596 1.0360 128.4 23.1 .203  51
2023 02 12 13  07 00 02.709   +54 40 52.59  .07604 1.0360 128.4 23.1 .203  51
2023 02 12 14  07 00 08.276   +54 43 08.77  .07612 1.0361 128.3 23.1 .202  50
2023 02 12 15  07 00 13.854   +54 45 24.55  .07621 1.0361 128.3 23.1 .201  49
2023 02 12 16  07 00 19.444   +54 47 39.93  .07629 1.0361 128.3 23.2 .200  49
2023 02 12 17  07 00 25.046   +54 49 54.91  .07637 1.0361 128.2 23.2 .200  48
2023 02 12 18  07 00 30.659   +54 52 09.48  .07646 1.0362 128.2 23.2 .199  47
2023 02 12 19  07 00 36.283   +54 54 23.66  .07654 1.0362 128.1 23.2 .198  47
2023 02 12 20  07 00 41.919   +54 56 37.43  .07662 1.0362 128.1 23.2 .198  46
2023 02 12 21  07 00 47.566   +54 58 50.81  .07671 1.0362 128.0 23.2 .197  46
2023 02 12 22  07 00 53.225   +55 01 03.78  .07679 1.0362 128.0 23.2 .196  45
2023 02 12 23  07 00 58.895   +55 03 16.37  .07687 1.0363 128.0 23.2 .196  44
2023 02 13 00  07 01 04.577   +55 05 28.55  .07696 1.0363 127.9 23.2 .195  44
2023 02 13 01  07 01 10.270   +55 07 40.34  .07704 1.0363 127.9 23.2 .195  43
2023 02 13 02  07 01 15.974   +55 09 51.73  .07713 1.0363 127.8 23.2 .195  42